Weather Roundup
Issued by NWS

Home | Current Version | Previous Version | Text Only | Print | Product List | Glossary On
Versions: 1 2 3 4 5 6 7 8 9 10 11 12 13 14 15 16 17 18 19 20 21 22 23 24 25 26 27 28 29 30 31 32 33 34 35 36 37 38 39 40 41 42 43 44 45 46 47 48 49 50
632
NZUS93 KARX 191910
HRRWXR

CURRENT HOURLY OBSERVATIONS ACROSS
MUCH OF THE UPPER MISSISSIPPI VALLEY
NATIONAL WEATHER SERVICE LA CROSSE WI
100 PM CST SUN NOV 19 2017


...SOUTHEAST MINNESOTA...


CITY           SKY/WX    TMP DP  RH WIND       PRES   REMARKS
ROCHESTER      SUNNY     34  21  59 SW14      29.99F WCI  25
ROCHESTER/MAYO FAIR      35  19  52 SW10      29.99F WCI  27
WINONA           N/A     34  18  51 CALM      30.02F
AUSTIN         SUNNY     36  19  51 SW12      30.01F WCI  27
ALBERT LEA     SUNNY     37  21  52 SW12      30.00F WCI  30
DODGE CENTER   SUNNY     34  19  55 SW15      29.98F WCI  24
PRESTON        SUNNY     33  18  53 W9        30.01F WCI  25
OWATONNA       SUNNY     39  25  56 SW14      29.99F WCI  31
FARIBAULT      SUNNY     37  21  52 S9        29.98F WCI  31
$$

...ELSEWHERE IN MINNESOTA...


CITY           SKY/WX    TMP DP  RH WIND       PRES   REMARKS
MINNEAPOLIS    PTSUNNY   35  19  52 SW5       29.96F WCI  31
INTNL FALLS    CLOUDY    19   8  62 W8        29.85F WCI   9
DULUTH         FLURRIES  20  12  71 W9        29.87F WCI   9
RED WING       CLOUDY    34  12  40 SW5       29.98F WCI  30
REDWOOD FALLS  SUNNY     49  24  37 W10       29.93F
MANKATO        SUNNY     40  23  50 SW10      29.98F WCI  33
WORTHINGTON    SUNNY     44  25  47 SW16      29.97F
FAIRMONT       SUNNY     45  25  45 SW15      29.98F
$$

...SOUTHWEST WISCONSIN...


CITY           SKY/WX    TMP DP  RH WIND       PRES   REMARKS
LA CROSSE      CLOUDY    34  14  43 VRB5      30.03F WCI  30
PRAIRIE DU CHI SUNNY     34  14  43 SW10      30.07F WCI  26
BOSCOBEL       SUNNY     35  13  40 W10G16    30.06F WCI  27
LONE ROCK      SUNNY     34  15  46 W14       30.04F WCI  25
PLATTEVILLE    SUNNY     32  17  54 W10       30.06F WCI  24
FORT MC COY    CLOUDY    30  14  51 SW6       30.03S WCI  24
CAMP DOUGLAS   MOSUNNY   30  10  43 W8        30.01F WCI  23
MAUSTON-NEW LI CLEAR     32  14  47 NW10      30.00F WCI  23
VIROQUA        FAIR      31  18  59 W9        30.00F WCI  23
WIS DELLS      SUNNY     30  11  45 W8        30.00F WCI  22
$$

...ELSEWHERE IN WISCONSIN...


CITY           SKY/WX    TMP DP  RH WIND       PRES   REMARKS
MILWAUKEE      MOSUNNY   33  14  45 W14G24    30.01S WCI  23
MADISON        MOSUNNY   30  12  47 W8G18     30.02F WCI  22
GREEN BAY      SUNNY     31  17  56 W16G23    29.95F WCI  20
EAU CLAIRE     SUNNY     31  13  47 W8        29.98F WCI  23
BLACK RVR FLS  FAIR      33  11  40 W10       30.00F WCI  24
MEDFORD        MOSUNNY   26  10  48 W9G16     29.92F WCI  17
WAUSAU         SUNNY     26  10  50 W10       29.93F WCI  16
WIS RAPIDS     SUNNY     29   9  43 W13       29.98F WCI  19
MARSHFIELD     SUNNY     28   9  44 W9G17     29.94F WCI  19
RICE LAKE      SUNNY     29  14  53 SW7       29.97F WCI  22
$$

...NORTHEAST IOWA...


CITY           SKY/WX    TMP DP  RH WIND       PRES   REMARKS
WATERLOO       SUNNY     37  19  48 SW15      30.09F WCI  28
DUBUQUE        MOSUNNY   29  16  58 W9        30.08F WCI  20
DECORAH        SUNNY     32  16  51 SW9       30.03F WCI  24
MASON CITY     SUNNY     39  21  48 SW14      30.04F WCI  31
CHARLES CITY   SUNNY     36  19  51 SW12      30.06F WCI  27
OELWEIN        SUNNY     32  18  55 W10       30.09R WCI  24
$$

...ELSEWHERE IN IOWA...


CITY           SKY/WX    TMP DP  RH WIND       PRES   REMARKS
DES MOINES     MOSUNNY   45  22  40 SW10      30.12F
IOWA CITY      MOSUNNY   37  18  46 SW10      30.14F WCI  30
FORT DODGE     SUNNY     44  24  45 SW17      30.04F
MARSHALLTOWN   SUNNY     40  22  48 SW15      30.09F WCI  32
CEDAR RAPIDS   SUNNY     36  19  50 SW10      30.10F WCI  28
$$

...NORTHERN ILLINOIS...


CITY           SKY/WX    TMP DP  RH WIND       PRES   REMARKS
CHICAGO-OHARE  MOSUNNY   34  18  52 W14G21    30.03F WCI  25
CHICAGO-MIDWAY MOSUNNY   35  20  54 W15       30.04F WCI  25
MOLINE         MOSUNNY   36  17  46 W13       30.14S WCI  27
ROCKFORD       PTSUNNY   33  16  49 NW14      30.08F WCI  23
PEORIA         MOSUNNY   34  17  50 W12       30.14F WCI  25
$$

NOTE: "FAIR" INDICATES FEW OR NO CLOUDS BELOW 12,000 FEET WITH NO
SIGNIFICANT WEATHER AND/OR OBSTRUCTIONS TO VISIBILITY. WIND
SPEEDS ARE IN MILES-PER-HOUR.




USA.gov is the U.S. government's official web portal to all federal, state and local government web resources and services.